User: anonymous   Login
Location: Del Oro Observatory
(38.3044°N, 104.8119°W)
Time: 13:46:27
(UTC-06:00)
Language:

Cosmos 1602 Rocket - Orbit

View from above orbital plane
View from above orbital plane
View from above satellite
View from above satellite

Ground track
Ground track

The orbit data is extracted from the following two-line orbital elements,

1 15332U 84105B   17232.84071274  .00000081  00000-0  68370-5 0  9998
2 15332  82.5358 127.6534 0021798 153.3666 251.4154 14.83315224776175
Epoch (UTC): 20 August 2017 20:10:37
Eccentricity: 0.0021798
inclination: 82.5358°
perigee height: 603 km
apogee height: 634 km
right ascension of ascending node: 127.6534°
argument of perigee: 153.3666°
revolutions per day: 14.83315224
mean anomaly at epoch: 251.4154°
orbit number at epoch: 77617

The dashed part of the orbit path shows where the satellite is in the earth's shadow,  

DLR